Notices

What's New in latest Release from April 7th, 2021:

- Updated Glossary, including Speed of Maximum Gust, and Total Hourly Precipitation

- Updated national and regional climate services offices contacts and prices information

- Addition of station inventory lists for 1981-2010, 1971-2000, and 1961-1990 Normals.

If you haven't already, please take our survey and provide feedback about our website: https://eccc.sondage-survey.ca/f/LanguageSelection.aspx?s=442ca660-fcf1-47c0-95a9-59707d6fd709

Hourly Data Report for February 20, 2017

TORONTO INTL A
ONTARIO

43°40'36.000" N
79°37'50.000" W
173.40 m
6158731
71624
YYZ

Download Data

Hourly Data (February 2017)
Hourly Data Report for February 20, 2017
TIME
LST
Temp Definition
°C
Dew Point Definition
°C
Rel Hum Definition
%
Precip. Amount Definition
mm

Wind Dir Definition
10's deg

Wind Spd Definition
km/h
Visibility Definition
km
Stn Press Definition
kPa
Hmdx Definition


Wind Chill Definition


Weather Definition


00:00 1.8 -2.5 73   33 11 24.1 100.02     LegendNANA
01:00 2.2 -2.0 74   34 22 24.1 100.07     Mainly Clear
02:00 1.7 -2.1 76   34 18 24.1 100.13     LegendNANA
03:00 1.3 -1.9 79   35 17 24.1 100.20     LegendNANA
04:00 1.0 -1.9 81   36 20 24.1 100.26     Clear
05:00 0.2 -2.4 83   1 16 24.1 100.40     LegendNANA
06:00 -0.3 -2.8 83   36 13 24.1 100.48   -4 LegendNANA
07:00 -0.4 -3.3 81   36 14 24.1 100.52   -5 Clear
08:00 -0.3 -3.5 79   1 12 24.1 100.65   -4 LegendNANA
09:00 0.5 -4.4 70   4 11 24.1 100.71     LegendNANA
10:00 2.0 -4.8 61   6 10 24.1 100.74     Mainly Clear
11:00 2.7 -5.2 56   1 9 24.1 100.79     LegendNANA
12:00 4.0 -5.8 49   4 8 24.1 100.71     LegendNANA
13:00 4.5 -3.5 56   15 13 24.1 100.63     Mainly Clear
14:00 3.8 -3.5 59   14 16 24.1 100.67     LegendNANA
15:00 4.3 -3.2 58   13 9 24.1 100.66     LegendNANA
16:00 3.2 -3.8 60   16 12 24.1 100.68     Mainly Clear
17:00 2.2 -4.3 62   14 16 24.1 100.65     LegendNANA
18:00 0.8 -4.1 70   13 10 24.1 100.66     LegendNANA
19:00 0.4 -4.6 69   11 8 24.1 100.68     Mainly Clear
20:00 0.1 -5.1 68   8 9 24.1 100.65     LegendNANA
21:00 0.2 -5.2 67   10 7 24.1 100.63     LegendNANA
22:00 0.9 -6.5 58   11 13 24.1 100.56     Mostly Cloudy
23:00 1.2 -6.9 55   12 18 24.1 100.46     LegendNANA

Notes on Data Quality.

Legend

  • E = Estimated
  • M = Missing
  • NA = Not Available*
  • [empty] = Indicates an unobserved value
Date modified: